Back to catalog

STARLINK-37680

AliveCommunicationsVLEO
NORAD 69240·PAYLOAD·🇺🇸 United States

Launched May 29, 2026 from Cape Canaveral Space Force Station

Loading…

Next Passes (next 24 hours)

TLE

FreshSource: CelesTrak SupGP

Epoch: Sep 14, 2026, 14:41 UTC

1 69240C 26117C   26257.61229167  .00057971  00000+0  17135-2 0  2578
2 69240  53.1567 181.3182 0001299  98.3685 217.2767 15.34347550    14

Track STARLINK-37680 in real time with AllMySat

Download on the App Store